Location: Peterborough
(44.3091°N, 78.3197°W)
Time: 17:03:47
(UTC-04:00)

Explorer 7 - Pass Details

Date: 26 March 2023
Orbit: 477 x 653 km, 50.3° (Epoch: 04 June)

Event Time Altitude Azimuth Distance (km) Brightness Sun altitude
Rises 00:48:07 0° 288° (WNW) 2,656 - -43.1°
Reaches altitude 10° 00:51:00 10° 267° (W) 1,727 - -43.2°
Maximum altitude 00:53:28 16° 227° (SW) 1,353 - -43.2°
Drops below altitude 10° 00:55:52 10° 187° (S) 1,672 - -43.3°
Sets 00:58:33 0° 166° (SSE) 2,507 - -43.4°
